Overview Statistics Trail Chart Weather Telemetry Raw packets
 

This is the latest recevied weather packets stored in our database for station/object KC4GS-13. If no packets are shown the sender has not sent any weather packets the latest 10 day(s).

<< 1 2 3 4 5 >>
Time Temp. Humidity Pressure Rain* Wind** Luminosity Snow
1788626439 35° C 56% 1014.5 hPa 0 mm - 266 W/m² -
1788626135 35° C 57% 1014.5 hPa 0 mm - 69 W/m² -
1788625831 34.44° C 57% 1014.6 hPa 0 mm - 148 W/m² -
1788625526 35° C 57% 1015 hPa 0 mm - 108 W/m² -
1788625220 35° C 56% 1014.9 hPa 0 mm - 98 W/m² -
1788624915 34.44° C 58% 1015 hPa 0 mm - 153 W/m² -
1788624612 33.89° C 58% 1015.1 hPa 0 mm - 128 W/m² -
1788624306 33.89° C 59% 1015.4 hPa 0 mm - 89 W/m² -
1788624000 33.89° C 59% 1015.2 hPa 0 mm - 94 W/m² -
1788623695 33.89° C 57% 1015.3 hPa 0 mm - 314 W/m² -
1788623393 33.89° C 58% 1015.4 hPa 0 mm - 144 W/m² -
1788623089 33.89° C 59% 1015.4 hPa 0 mm - 107 W/m² -
1788622784 33.33° C 62% 1015.2 hPa 0 mm - 213 W/m² -
1788622480 32.78° C 63% 1015.4 hPa 0 mm - 377 W/m² -
1788622179 32.22° C 65% 1015.5 hPa 0 mm - 127 W/m² -
1788621879 32.22° C 67% 1015.6 hPa 0 mm - 429 W/m² -
1788621574 32.22° C 67% 1015.4 hPa 0 mm - 134 W/m² -
1788621270 31.67° C 69% 1015.7 hPa 0 mm - 188 W/m² -
1788620965 31.67° C 69% 1015.6 hPa 0 mm - 270 W/m² -
1788620665 31.67° C 70% 1015.7 hPa 0 mm - 154 W/m² -
1788620361 31.11° C 71% 1015.6 hPa 0 mm - 203 W/m² -
1788620056 31.11° C 71% 1015.8 hPa 0 mm - 77 W/m² -
1788619755 30.56° C 74% 1015.9 hPa 0 mm - 54 W/m² -
1788619445 30° C 74% 1016 hPa 0 mm - 115 W/m² -
1788619143 30° C 77% 1015.9 hPa 0 mm - 186 W/m² -

* Rain latest hour (hover to see other rain measurements)
** Current wind speed in m/s (hover to see current wind gust speed)